User: anonymous
Location: Unspecified
(0.0000°N, 0.0000°E)
Time: 16:16:17
(UTC+02:00)
Language:

Cosmos 1072 Rocket - Orbit

View from above orbital plane
View from above orbital plane
View from above satellite
View from above satellite

Ground track
Ground track

The orbit data is extracted from the following two-line orbital elements,

1 11239U 79003B   14272.67624262  .00000208  00000-0  19874-3 0  3723
2 11239 082.9348 104.5020 0039494 282.3828 122.3105 13.75735207791524
Epoch (UTC): 29 September 2014 16:13:47
Eccentricity: 0.0039494
inclination: 82.9348°
perigee height: 950 km
apogee height: 1008 km
right ascension of ascending node: 104.5020°
argument of perigee: 282.3828°
revolutions per day: 13.75735207
mean anomaly at epoch: 122.3105°
orbit number at epoch: 79152

The dashed part of the orbit path shows where the satellite is in the earth's shadow,  

DLR